FW9437 Weather Reports


time (UTC)temp
C
wind
direction
speed
KPH
gust
KPH
rain 1hr
cm
rain 24hr
cm
rain mn
cm
humidity
%
barometer
mb
20260510114557 11 0 0.0 0.0 0.00 0.00 0.00 94 1016.1
20260510113055 11 0 0.0 0.0 0.00 0.00 0.00 94 1015.8
20260510111600 11 0 0.0 0.0 0.00 0.00 0.00 94 1015.4
20260510110055 11 0 0.0 0.0 0.00 0.00 0.00 94 1015.2
20260510104558 11 0 0.0 0.0 0.00 0.00 0.00 94 1014.8
20260510103100 11 0 0.0 0.0 0.00 0.00 0.00 93 1014.5
20260510101556 11 0 0.0 0.0 0.00 0.00 0.00 93 1014.4
20260510100055 11 0 0.0 0.0 0.00 0.00 0.00 93 1014.3
20260510094559 11 0 0.0 0.0 0.00 0.00 0.00 93 1014.1
20260510093059 11 0 0.0 0.0 0.00 0.00 0.00 93 1014.1
20260510091559 11 0 0.0 1.6 0.00 0.00 0.00 93 1014.2
20260510090059 11 0 0.0 0.0 0.00 0.00 0.00 93 1014.1
20260510084555 11 0 0.0 0.0 0.00 0.00 0.00 93 1014.0
20260510083057 11 0 0.0 0.0 0.00 0.00 0.00 93 1013.8
20260510081556 11 0 0.0 1.6 0.00 0.00 0.00 93 1013.8
20260510080054 11 0 0.0 0.0 0.00 0.00 0.00 92 1013.7
20260510074557 11 0 0.0 0.0 0.00 0.00 0.00 92 1013.8
20260510073112 11 0 0.0 0.0 0.00 0.00 0.00 92 1013.7
20260510071605 11 0 0.0 0.0 0.00 0.00 0.00 92 1013.9
20260510070056 11 0 0.0 0.0 0.00 0.00 0.00 92 1013.6
20260510064600 11 0 0.0 1.6 0.00 0.00 0.00 91 1013.4
20260510063058 11 0 0.0 0.0 0.00 0.00 0.00 92 1013.4
20260510061556 11 0 0.0 0.0 0.00 0.00 0.00 92 1013.4
20260510060055 11 0 0.0 0.0 0.00 0.00 0.00 91 1013.4
20260510054555 11 0 0.0 0.0 0.00 0.00 0.00 91 1013.4
20260510053054 12 0 0.0 0.0 0.00 0.00 0.00 90 1013.5
20260510051557 12 0 0.0 0.0 0.00 0.00 0.00 90 1013.4
20260510050059 12 0 0.0 0.0 0.00 0.00 0.00 90 1013.4
20260510044554 12 0 0.0 1.6 0.00 0.00 0.00 89 1013.4
20260510043108 12 0 0.0 1.6 0.00 0.00 0.00 89 1013.4
20260510041558 12 0 0.0 0.0 0.00 0.00 0.00 88 1013.4
20260510040109 13 0 0.0 0.0 0.00 0.00 0.00 87 1013.2
20260510034600 13 0 0.0 0.0 0.00 0.00 0.00 87 1013.3
20260510033055 13 0 0.0 1.6 0.00 0.00 0.00 86 1013.4
20260510031557 14 0 0.0 1.6 0.00 0.00 0.00 85 1013.4
20260510030053 14 0 0.0 0.0 0.00 0.00 0.00 84 1013.2
20260510024555 14 0 0.0 0.0 0.00 0.00 0.00 83 1013.0
20260510023055 15 0 0.0 0.0 0.00 0.00 0.00 83 1013.0
20260510021600 15 0 0.0 1.6 0.00 0.00 0.00 83 1012.7
20260510020055 16 98 1.6 1.6 0.00 0.00 0.00 82 1012.6
20260510014611 16 98 0.0 1.6 0.00 0.00 0.00 80 1012.2
20260510013055 17 0 0.0 0.0 0.00 0.00 0.00 79 1012.2
20260510011553 17 0 0.0 1.6 0.00 0.00 0.00 78 1011.9
20260510010054 18 0 0.0 1.6 0.00 0.00 0.00 74 1011.9
20260510004556 20 98 0.0 1.6 0.00 0.00 0.00 72 1011.7
20260510003058 20 98 0.0 1.6 0.00 0.00 0.00 68 1011.5
20260510001555 22 0 0.0 1.6 0.00 0.00 0.00 61 1011.5
20260510000059 23 0 0.0 0.0 0.00 0.00 0.00 52 1011.3
20260509234607 24 0 0.0 0.0 0.00 0.00 0.00 49 1011.2
20260509233101 25 0 0.0 1.6 0.00 0.00 0.00 48 1011.2
20260509231558 25 0 0.0 0.0 0.00 0.00 0.00 47 1011.0
20260509230058 25 0 0.0 1.6 0.00 0.00 0.00 44 1011.0
20260509224605 26 0 0.0 4.8 0.00 0.00 0.00 43 1011.1
20260509223059 26 0 0.0 4.8 0.00 0.00 0.00 44 1011.0
20260509221606 27 283 0.0 3.2 0.00 0.00 0.00 43 1011.0
20260509220100 27 0 1.6 6.4 0.00 0.00 0.00 42 1011.0
20260509214607 28 0 0.0 3.2 0.00 0.00 0.00 39 1011.1
20260509213110 28 0 1.6 6.4 0.00 0.00 0.00 38 1011.0
20260509211602 27 222 1.6 6.4 0.00 0.00 0.00 41 1011.0
20260509210116 26 333 3.2 6.4 0.00 0.00 0.00 44 1010.9
20260509204607 27 0 1.6 6.4 0.00 0.00 0.00 45 1010.8
20260509203107 26 0 1.6 8.0 0.00 0.00 0.00 46 1011.0
20260509201602 26 7 3.2 9.7 0.00 0.00 0.00 44 1011.1
20260509200103 27 41 1.6 6.4 0.00 0.00 0.00 46 1011.2
20260509194600 26 221 0.0 8.0 0.00 0.00 0.00 45 1011.3
20260509193057 26 355 3.2 8.0 0.00 0.00 0.00 50 1011.4
20260509191602 26 130 1.6 6.4 0.00 0.00 0.00 46 1011.5
20260509190107 25 197 1.6 8.0 0.00 0.00 0.00 50 1011.6
20260509184553 25 0 1.6 4.8 0.00 0.00 0.00 50 1011.8
20260509183055 25 207 1.6 6.4 0.00 0.00 0.00 53 1011.8
20260509181600 26 294 1.6 4.8 0.00 0.00 0.00 55 1011.7
20260509180100 24 294 4.8 6.4 0.00 0.00 0.00 57 1011.5
20260509174554 24 293 3.2 8.0 0.00 0.00 0.00 57 1011.6
20260509173057 25 0 0.0 6.4 0.00 0.00 0.00 57 1011.6
20260509171557 23 299 1.6 8.0 0.00 0.00 0.00 58 1011.8
20260509170106 23 299 3.2 12.9 0.00 0.00 0.00 61 1011.8
20260509164558 23 345 3.2 8.0 0.00 0.00 0.00 64 1011.7
20260509163054 23 314 3.2 8.0 0.00 0.00 0.00 63 1011.6
20260509161600 22 15 3.2 8.0 0.00 0.00 0.00 63 1011.5
20260509160057 22 347 1.6 8.0 0.00 0.00 0.00 64 1011.6
20260509154559 22 295 4.8 11.3 0.00 0.00 0.00 66 1011.7
20260509153057 22 302 1.6 11.3 0.00 0.00 0.00 68 1011.6
20260509151555 21 283 0.0 6.4 0.00 0.00 0.00 72 1011.6
20260509150056 21 325 1.6 6.4 0.00 0.00 0.00 70 1011.6
20260509144554 21 332 1.6 6.4 0.00 0.00 0.00 72 1011.5
20260509143055 20 0 0.0 4.8 0.00 0.00 0.00 75 1011.4
20260509141558 19 290 1.6 6.4 0.00 0.00 0.00 78 1011.3
20260509134628 17 0 0.0 1.6 0.00 0.00 0.00 84 1011.3
20260509133059 16 110 0.0 3.2 0.00 0.00 0.00 86 1011.3
20260509131559 15 0 0.0 1.6 0.00 0.00 0.00 87 1011.2
20260509130057 15 136 1.6 4.8 0.00 0.00 0.00 88 1011.1
20260509124558 13 232 1.6 6.4 0.00 0.00 0.00 89 1011.1
20260509123055 13 161 1.6 4.8 0.00 0.00 0.00 90 1011.2
20260509121558 12 0 0.0 3.2 0.00 0.00 0.00 91 1011.2
20260509120057 12 0 0.0 1.6 0.00 0.00 0.00 91 1011.0